Weather Service Report


207 
ASUS41 KAKQ 221610
RWRAKQ

REGIONAL WEATHER ROUNDUP
NATIONAL WEATHER SERVICE WAKEFIELD VA
1200 PM EDT MON SEP 22 2014

Note: "fair" indicates few or no clouds below 12,000 feet with no
significant weather and/or obstructions to visibility. * = Denotes
station may not report precipitation (e.g., rain,snow,etc.),
thunder or fog.

VAZ042-051-052>054-056-221700-
NORTHERN VIRGINIA
  
CITY           SKY/WX    TMP DP  RH WIND       PRES   REMARKS
WASH NATIONAL  MOSUNNY   72  45  37 W18G25    30.04R                  
DULLES         MOSUNNY   68  44  42 N16       30.05R                  
FORT BELVOIR   MOSUNNY   70  48  46 NW15G21   30.04R                  
QUANTICO       MOSUNNY   71  47  42 N16G28    30.05R                  
FREDERICKSBRG* MOSUNNY   73  46  39 NW21G28   30.03F                  
STAFFORD*      MOSUNNY   70  47  43 NW15G24   30.09R                  
WARRENTON      MOSUNNY   72  55  54 NW15G21   30.05R                  
CULPEPER*      SUNNY     70  45  40 NW12G21   30.07R                  
MANASSAS*      MOSUNNY   70  48  46 NW18      30.06R                  
LEESBURG*      MOSUNNY   68  48  49 N18G25    30.06S                  
WINCHESTER     MOSUNNY   68  43  40 NW15G24   30.07S                  
FRONT ROYAL*   PTSUNNY   63  45  51 W7        30.07S                  
LURAY*         CLOUDY    66  46  48 NW9G17    30.11R                  
$$

VAZ048-049-060>072-079>083-221700-
CENTRAL AND SOUTH CENTRAL VIRGINIA...AND NORTH CENTRAL NORTH CAROLINA
  
CITY           SKY/WX    TMP DP  RH WIND       PRES   REMARKS
RICHMOND       MOSUNNY   78  46  32 NW15      30.03R                  
CHESTERFIELD*  SUNNY    N/A N/A N/A N12G18    30.04F                  
PETERSBURG*    SUNNY     74  45  34 NW9       30.03F                  
HANOVER        MOSUNNY   72  49  44 NW8G16    30.05R                  
TAPPAHANNOCK*  SUNNY     75  43  32 NW9G18    30.03S                  
CHARLOTTSVILLE MOSUNNY   70  47  43 NW8G17    30.06S                  
ORANGE*        SUNNY     70  45  40 NW10G17   30.07S                  
LOUISA*        SUNNY     73  48  40 NW8G17    30.04S                  
FARMVILLE*     SUNNY     73  46  38 N6        30.03F                  
CREWE*         SUNNY     73  47  39 N6        30.04F                  
FORT PICKETT*  SUNNY     73  49  41 N8G18     30.04F                  
LUNENBURG*     SUNNY     73  52  47 NW6       30.04F                  
SOUTH HILL*    SUNNY     75  52  43 N10       30.09F                  
LAWRENCEVILLE* SUNNY     72  51  46 NW7       30.03F                  
ROANOKE RAPIDS SUNNY     73  52  46 NW9       30.03F                  
RALEIGH        MOSUNNY   73  50  44 N8        30.06F                  
$$

VAZ088>098-221700-
SOUTHEAST VIRGINIA
  
CITY           SKY/WX    TMP DP  RH WIND       PRES   REMARKS
NORFOLK        SUNNY     75  51  43 N10       30.00S                  
VIRGINIA BEACH MOSUNNY   75  52  44 NW16G24   30.00R                  
NORFOLK NAVAL  MOSUNNY   77  52  41 N8        30.02S                  
WEST POINT*    SUNNY     76  47  35 NW7       30.03F                  
NEWPORT NEWS   SUNNY     78  52  40 N14       30.01S                  
LANGLEY AFB    SUNNY     74  52  45 NW10      30.00S                  
FORT EUSTIS    SUNNY     74  47  38 NW10      30.00S                  
WILLIAMSBURG*  SUNNY     81  54  39 NW9       30.02F                  
HR EXEC AP*    SUNNY     75  54  46 N5        30.03S                  
FRANKLIN*      SUNNY     75  50  41 N7        30.02S                  
WAKEFIELD      SUNNY     75  50  41 N6        30.02S                  
$$

VAZ020-022-025-037-045-221700-
WEST CENTRAL AND SOUTHWEST VIRGINIA
  
CITY           SKY/WX    TMP DP  RH WIND       PRES   REMARKS
STAUNTON*      CLOUDY    66  45  47 N6        30.11S                  
HOT SPRINGS VA PTSUNNY   53  33  47 NW14G20   30.16F                  
LYNCHBURG      SUNNY     68  48  48 N10G23    30.09F                  
DANVILLE       SUNNY     71  50  47 NW8       30.09R                  
SOUTH BOSTON*  NOT AVBL                                               
MARTINSVILLE   SUNNY     71  50  47 N7        30.11F                  
ROANOKE        MOSUNNY   68  48  48 NW15      30.12F                  
BLACKSBURG     SUNNY     63  54  72 W6        30.16S                  
DUBLIN*        MOSUNNY   63  49  61 N6        30.16F                  
MARION*        MOSUNNY   60  47  62 NW8       30.19S                  
HILLSVILLE*    SUNNY     59  47  65 NW13G18   30.14F                  
RICHLANDS*     CLOUDY    58  48  69 N3        30.19S                  
WISE*          CLOUDY    57  43  58 NW6       30.21S                  
ABINGDON*      MOSUNNY   62  46  55 N8        30.17F                  
$$

MDZ021>025-VAZ099-100-221700-
SOUTHERN MARYLAND AND THE DELMARVA PENINSULA
  
CITY           SKY/WX    TMP DP  RH WIND       PRES   REMARKS
PATUXENT RIVER MOSUNNY   73  47  39 NW20G25   30.01R                  
BAY BRIDGE APT   N/A     68  46  45 NW15      30.01R                  
LEONARDTOWN    PTSUNNY   70  46  43 W13G18    30.03R                  
DOVER          SUNNY     70  49  46 NW17G26   29.95R                  
GEORGETOWN     MOSUNNY   71  48  43 VRB7G18   29.98R                  
EASTON         MOSUNNY   72  50  46 NW13G22   30.04R                  
CAMBRIDGE      MOSUNNY   72  50  46 NW10G22   30.00R                  
SALISBURY      SUNNY     74  49  41 NW13G22   29.98S                  
OCEAN CITY     SUNNY     74  49  41 NW14G22   29.96S                  
WALLOPS ISLAND MOSUNNY   74  53  48 N16G23    29.98S                  
ACCOMACK*      MOSUNNY   72  52  49 NW14G25   30.00R                  
$$

NCZ012>017-030>032-221700-
EASTERN NORTH CAROLINA
  
CITY           SKY/WX    TMP DP  RH WIND       PRES   REMARKS
ELIZABETH CITY CLOUDY    76  57  51 N10       30.00S                  
AHOSKIE*       SUNNY     73  53  48 N10       30.03S                  
EDENTON*       MOSUNNY   77  55  47 NW7       30.01F                  
CURRITUCK*     SUNNY     76  52  42 N9        30.01S                  
KILL DEVIL HLS SUNNY     76  60  56 N9        29.99S                  
MANTEO         MOSUNNY   75  58  55 N13       30.00S                  
CAPE HATTERAS  MOSUNNY   77  68  73 N8G17     29.99R                  
TARBORO*       MOSUNNY   76  53  45 N7        30.04F                  
GOLDSBORO      MOSUNNY   73  59  61 CALM      30.03R                  
WASHINGTON     SUNNY     74  58  57 N6        30.03S                  
GREENVILLE     MOSUNNY   77  55  47 N7        30.05S                  
NEW BERN       CLOUDY    79  57  46 VRB7      30.03R                  
WILMINGTON     PTSUNNY   78  59  51 N8        30.02F                  
$$

VAZ048-221700-
ELSEWHERE
  
CITY           SKY/WX    TMP DP  RH WIND       PRES   REMARKS
HARRISBURG PA  PTSUNNY   68  46  45 NW20G25   30.01R                  
BALTIMORE      MOSUNNY   70  46  42 NW16G24   30.00S                  
ANNAPOLIS      PTSUNNY   67  48  50 NW15G23   30.01R                  
ANDREWS AFB    PTSUNNY   68  49  49 NW17      30.02S                  
WILMINGTON DE  MOSUNNY   68  49  50 NW15      29.98R                  
PHILADELPHIA   MOSUNNY   70  49  47 NW17      29.95R                  
WILDWOOD NJ*   SUNNY     70  48  46 W15G22    29.97R                  
ATLANTIC CITY  SUNNY     71  50  47 W13G21    29.93R                  
HENDERSON NC   SUNNY     71  48  44 N8        30.06F                  
GREENSBORO     MOSUNNY   70  51  51 N8        30.09S                  
ROCKY MOUNT    MOSUNNY   75  53  46 N12       30.04S                  
FAYETTEVILLE   PTSUNNY   76  54  46 NE9       30.04F                  
CHARLOTTE      PTSUNNY   72  51  47 N10       30.07F                  
$$

VAZ100-221700-
MARINE
  
STATION/POSITION TIME  TEMP    WIND        PRES    WAVE   SWELL
                       AIR SEA DIR/SP/G            HT/PER HT/PER
                 (UTC) (F)     (DEG/KT/KT) (MB)    (FT/S) (FT/S)
44066 TX TWR #4  1600   67 70  300/ 17/ 21 1011.6R   8/11   5/11
CAPE MAY NJ      1600   69 74  310/ 17/ 23 1014.0R
LEWES DE         1600   69 71  310/ 15/ 18 1014.3R
15NM E FENWICK I 1600   68 71              1014.2R   5/ 9
OCEAN-CITY-INLET 1600   70 72  340/ 13/ 18 1014.1R
WACHAPREAGUE VA  1600   71 73  330/  9/ 15 1015.6R
THOMAS POINT MD  1600   66 73  320/ 15/ 18 1017.1R
GOOSES REEF MD   1600   68     340/ 16/ 21 1016.3S
COVE POINT MD    1600   67     340/ 17/ 19 1016.1R
SOLOMONS ISLAND  1600      75                N/A
BISHOPS HEAD MD  1600   68 70  310/ 15/ 19 1015.7R
PINEY POINT MD   1600          320/ 19/ 21   N/A
POTOMAC MD       1600   69     310/ 16/ 19 1015.6R
CAMBRIDGE MD     1600   68 73  300/ 14/ 19 1015.7R
LEWISETTA VA     1600   69 74  310/ 14/ 18 1016.1R
RAPPAHANNOCK LGT 1600          320/ 16/ 19 1016.4S
STINGRAY PT      1600   71     330/ 12/ 16   N/A
YORK RVR RNG VA  1600   71     360/ 11/ 14 1015.6F
YORKTOWN VA      1600   71 76  310/ 15/ 18 1015.9F
JAMESTOWN VA     1600   70     330/ 10/ 14   N/A
DOMINION TERM VA 1600   72     310/ 12/ 13 1016.2S
KIPTOPEKE VA     1600      78  340/ 15/ 19   N/A
CHES BAY BRIDGE  1600   71 75  320/ 12/ 15 1015.8R
CAPE HENRY VA    1600   71     320/ 12/ 16 1014.9R
CHESAPEAKE LGHT  1500   71     330/ 16/ 18 1016.2R
WILLOUBY STN VA  1600   72     350/  9/ 11 1015.0S
S CRANEY ISL VA  1600          310/  7/ 10 1015.8F
CAPE HENRY BUOY  1600      75                N/A     3/ 9   2/11
1ST LANDING BUOY 1600   72     330/ 14/ 16 1015.9R
CAPE CHARLES BUO 1600      74                N/A     3/11   3/11
OFFSHORE WE BUOY 1600      74                N/A     4/ 9   3/ 9
64NM E OF VA BCH 1600   71 76  350/ 16/ 17 1015.2R   5/ 9   3/ 9
DUCK PIER NC     1600   73 74   10/ 13/ 15 1015.1R
44100 DUCK FRF   1600      74                N/A     4/ 9   2/11
44056 DUCK FRF   1600                        N/A     3/ 9
OREGON INLET NC  1600   76 75  350/ 10/ 16 1015.7R
DIAMOND SHLS NC  1600   76     330/ 10/ 14 1015.2R   5/ 8   5/ 8
CAPE LOOKOUT NC  1500   77      20/  8/ 10 1015.5R
$$

Return to Home page


Western Regional Climate Center, wrcc@dri.edu